User: anonymous   Login
Location: Unspecified
(0.0000°N, 0.0000°E)
Time: 10:04:29
(UTC+00:00)
Language:

TAURUS-1 - Orbit

View from above orbital plane
View from above orbital plane
View from above satellite
View from above satellite

Ground track
Ground track

The orbit data is extracted from the following two-line orbital elements,

1 44530U 19059C   21342.87106187  .00000865  00000-0  25352-3 0  9999
2 44530  98.5512  74.7099 0012670 338.9918  21.0743 14.46339708118294
Epoch (UTC): 08 December 2021 20:54:19
Eccentricity: 0.0012670
inclination: 98.5512°
perigee height: 728 km
apogee height: 746 km
right ascension of ascending node: 74.7099°
argument of perigee: 338.9918°
revolutions per day: 14.46339708
mean anomaly at epoch: 21.0743°
orbit number at epoch: 11829

The dashed part of the orbit path shows where the satellite is in the earth's shadow,  

DLR